Terug naar catalogus

COSMOS 831

ActiefNavigatieLEO
NORAD 8895·PAYLOAD·🇷🇺 Russia

Gelanceerd Jun 15, 1976 vanaf Plesetsk Cosmodrome

Loading…

Volgende Passages (komende 24 uur)

TLE

VersSource: Space-Track

Epoch: Sep 14, 2026, 21:51 UTC

1 08895U 76054G   26257.91051108 -.00000022  00000-0 -41498-4 0  9995
2 08895  73.9973  88.8330 0020766 358.5488  68.5288 12.43748968281451

Volg COSMOS 831 in realtime met AllMySat

Download on the App Store